Terminal Aerodrome Forecast
Issued by NWS Riverton, WY

Home | Current Version | Previous Version | Text Only | Print | Product List | Glossary On
Versions: 1 2 3 4 5 6 7 8 9 10 11 12 13 14 15 16 17 18 19 20
000
FTUS45 KRIW 011132
TAFRIW
TAF
KRIW 011132Z 0112/0212 VRB04KT P6SM VCFG SCT005 SCT050
     FM011700 07006KT P6SM SCT050 SCT080
     FM020200 VRB05KT P6SM SCT250=

USA.gov is the U.S. government's official web portal to all federal, state and local government web resources and services.